Theta_e
325 332 332 343 343 339 345 341 341 343 340 337 339 340 340 343 345 343 339 347 347 347 343 326 327 337 342 343 343 341 339 336 337 337 336 335 331 332 333 338 342 344 340 340 342 342 343 343 344
328 332 341 340 343 343 340 336 336 338 339 336 336 335 334 332 340 336 336 342 341 339 329 327 327 335 341 343 342 340 339 338 336 332 330 330 330 330 329 329 333 339 344 344 341 342 342 344 343
329 333 337 338 339 341 339 333 332 335 338 334 329 330 329 328 332 332 332 335 332 332 327 323 329 336 341 343 342 339 333 327 321 315 312 312 315 320 324 327 328 329 333 337 342 342 342 342 344
331 339 338 335 336 333 332 328 332 334 333 331 329 325 326 326 328 328 328 328 326 331 324 326 334 340 342 342 335 325 320 315 313 312 313 312 311 312 312 313 314 321 328 332 334 339 341 342 342
333 335 335 332 333 330 326 329 330 330 330 327 327 324 323 325 325 324 325 327 325 333 331 333 334 336 339 337 324 315 311 311 312 314 315 316 316 314 314 312 311 312 313 321 330 333 336 339 340
335 336 332 332 332 328 326 327 326 326 325 324 324 324 323 323 322 323 322 329 332 337 334 330 330 329 323 320 315 310 311 312 312 315 316 318 318 320 316 315 312 311 310 312 314 326 332 334 337
336 335 332 331 329 328 326 326 324 325 324 323 324 321 322 323 322 322 322 331 333 335 335 332 332 323 318 316 311 312 312 312 312 312 313 313 315 318 314 315 313 312 312 311 312 313 317 328 334
333 333 333 331 329 329 324 324 322 324 322 323 323 320 320 321 321 322 322 323 329 330 330 332 329 325 316 312 312 312 312 313 313 312 311 311 311 311 313 312 312 314 312 316 316 315 314 312 324
331 329 329 331 330 328 323 322 321 323 323 323 323 322 322 320 321 322 321 321 321 325 328 329 326 322 319 315 313 312 312 313 313 312 311 310 309 308 308 309 312 312 313 315 315 316 322 316 311
330 324 328 329 326 323 323 322 321 323 323 323 322 322 321 316 320 320 320 320 321 320 321 322 325 322 317 313 312 312 313 313 312 311 310 308 307 306 306 306 306 308 309 312 312 315 318 319 319
327 329 330 325 326 324 323 322 321 321 321 324 322 320 317 320 321 320 320 319 318 319 317 317 315 313 312 311 312 313 312 312 311 310 309 306 305 305 305 305 305 306 306 308 308 310 314 316 319
325 327 326 325 324 324 322 322 320 321 322 323 324 320 319 320 320 319 319 318 317 316 316 314 313 312 311 312 313 313 313 311 310 309 308 306 305 305 305 304 304 304 304 304 304 305 307 313 317
323 324 324 323 323 322 322 321 320 321 323 324 323 321 318 318 318 318 318 317 316 315 314 313 312 312 312 313 314 314 313 311 310 308 307 305 305 304 304 303 303 303 302 302 302 302 303 304 307
323 323 323 322 321 321 321 321 321 322 323 321 320 320 319 318 317 317 317 317 316 315 314 313 313 312 313 314 314 314 314 312 309 307 306 304 303 303 302 302 301 301 301 300 301 301 301 301 302
322 321 320 320 320 320 320 320 320 321 322 322 321 320 318 318 318 317 316 316 315 314 314 313 313 313 314 314 314 314 314 311 308 306 304 302 301 300 300 299 300 300 300 299 299 299 299 299 300
320 319 319 319 319 320 319 317 319 321 322 322 321 320 318 318 317 316 315 315 315 315 314 313 313 313 314 314 314 313 313 310 308 305 303 301 300 299 299 299 299 300 300 299 299 299 299 299 299
318 316 318 321 319 320 317 317 319 321 322 320 319 317 317 317 317 316 315 315 315 314 314 313 313 313 313 313 313 313 312 309 307 304 302 301 300 299 298 299 300 300 300 301 300 300 300 301 300
318 318 318 319 319 319 318 318 320 320 320 320 319 318 318 318 318 317 315 315 314 313 313 313 312 312 312 312 312 312 310 308 305 303 302 301 299 299 298 299 300 301 301 301 301 300 300 300 300
319 320 320 318 321 319 319 319 318 320 319 318 319 318 318 318 318 317 316 314 314 313 312 311 311 311 311 312 312 311 309 306 304 302 301 300 299 298 299 300 301 301 301 301 301 300 301 301 300
319 318 319 318 321 319 318 319 318 317 319 319 318 318 318 318 318 317 316 314 313 313 312 310 309 309 310 310 310 309 307 305 303 301 300 299 299 299 299 300 300 301 300 301 300 300 300 300 300
319 319 320 319 321 319 319 318 318 318 319 320 319 320 319 319 319 318 316 315 314 313 312 310 308 308 308 308 309 308 306 304 302 300 299 299 300 299 300 300 300 300 301 300 301 300 300 300 300
319 320 321 320 319 317 317 319 317 318 317 316 319 318 319 318 319 318 317 315 315 315 312 309 307 307 307 307 308 307 305 303 301 300 299 299 299 299 300 300 299 299 300 301 301 301 300 301 300
318 320 320 320 319 319 319 318 317 316 317 317 315 319 318 319 319 319 318 317 316 315 313 308 305 306 306 306 307 306 304 303 301 299 299 299 299 299 299 298 298 299 300 300 300 300 300 300 300
319 319 319 319 317 319 317 318 318 316 318 317 317 318 320 319 320 319 319 317 316 314 312 308 306 306 305 305 305 304 303 302 300 299 299 299 299 299 298 297 298 299 299 299 300 300 299 300 300
319 317 317 321 321 319 317 318 318 316 317 317 318 321 320 320 320 319 318 317 315 314 312 309 306 305 305 304 304 303 302 301 300 299 299 299 299 298 298 297 298 299 300 299 299 299 299 299 299
317 316 316 319 323 320 320 319 320 317 320 321 322 322 322 320 321 319 318 318 316 315 313 310 306 305 305 305 304 303 302 300 299 299 299 299 299 298 298 298 299 299 299 299 299 299 299 299 299
317 318 317 317 317 317 317 317 317 318 317 316 318 320 321 321 320 319 318 317 316 315 313 310 307 306 305 305 304 303 302 300 299 299 299 299 299 299 298 299 299 299 299 299 299 299 299 299 299
317 316 318 317 320 318 317 316 317 317 318 314 313 317 320 320 319 318 318 317 316 314 312 310 308 307 306 306 304 303 301 300 299 299 298 299 299 298 299 299 299 299 299 299 299 299 299 299 299
317 319 318 317 315 315 316 314 313 317 316 313 315 316 319 319 318 317 317 316 314 312 311 310 308 307 306 305 304 303 301 300 299 298 298 298 298 298 299 299 299 299 299 299 299 299 299 299 299
317 318 319 320 317 317 319 319 316 313 314 313 313 317 318 318 318 317 316 315 313 311 311 310 309 308 306 305 303 302 301 300 299 298 298 298 298 298 298 298 298 298 298 298 299 299 299 299 299
Wind_Speed
5 3 2 3 4 5 3 0 5 3 6 19 21 25 14 11 4 8 12 10 7 9 7 10 8 8 8 10 9 11 15 17 17 17 16 16 15 15 13 13 12 11 12 12 10 9 7 3 4
4 2 3 3 4 3 3 2 6 4 7 27 26 21 15 7 13 10 16 9 1 6 8 9 7 8 9 10 12 14 16 17 18 19 19 18 17 16 15 14 14 13 12 11 10 9 7 4 4
4 5 3 4 3 2 4 4 6 6 3 2 9 14 6 3 10 7 13 5 2 7 7 6 8 8 9 12 14 16 19 19 18 18 19 19 18 17 17 16 14 12 11 11 11 10 7 5 4
6 3 1 4 5 5 7 7 10 8 5 2 18 11 8 5 8 9 10 2 4 5 5 8 9 11 12 14 16 17 17 17 18 18 18 18 20 19 17 16 15 13 12 10 9 9 8 6 5
4 1 3 4 3 4 4 11 12 6 7 12 10 4 7 11 13 7 10 5 0 7 9 10 10 11 12 14 15 16 17 17 17 17 17 17 18 19 16 18 16 13 11 10 9 7 6 5 6
3 1 4 2 3 6 7 9 4 5 17 16 14 10 6 12 11 8 9 11 7 8 10 12 12 12 14 15 15 16 15 14 14 14 14 13 13 13 13 14 14 13 12 9 8 7 5 5 6
2 3 3 2 3 4 6 11 4 4 11 6 20 6 12 15 14 8 8 16 13 11 10 12 12 10 13 14 12 12 11 11 11 11 9 10 10 7 9 9 9 9 9 9 8 7 6 5 5
2 3 4 2 6 5 11 11 3 7 2 13 10 7 8 21 18 11 9 13 15 15 12 11 10 9 10 12 9 7 7 8 10 10 9 7 6 5 5 6 6 7 8 8 9 9 8 7 7
1 4 2 4 7 6 16 5 4 6 9 6 6 18 16 20 21 15 14 12 14 17 16 16 16 11 9 8 6 4 4 7 10 11 11 10 8 8 4 4 3 2 3 4 7 6 10 11 11
3 3 3 2 4 6 12 13 10 6 10 6 14 18 19 21 22 18 16 16 17 17 19 18 21 16 10 7 3 1 4 8 11 14 15 15 15 15 14 10 9 7 3 3 3 3 3 6 9
4 4 2 2 4 12 17 14 14 12 5 13 19 20 21 21 20 21 19 17 17 19 17 19 15 13 9 5 2 2 7 10 12 14 16 16 15 15 14 13 11 10 11 11 9 6 7 6 5
1 4 2 2 2 4 10 14 11 12 6 16 18 21 23 24 23 23 21 21 20 19 19 15 14 11 9 7 3 5 8 10 12 14 15 14 15 15 14 13 12 11 12 12 13 11 7 8 9
4 5 4 6 3 4 10 10 9 10 8 17 23 22 22 22 24 23 21 19 19 18 19 17 14 13 10 7 7 7 8 10 12 12 13 13 13 13 13 12 12 12 12 13 13 13 11 10 10
3 9 8 6 6 6 5 7 11 15 18 22 24 24 24 25 26 25 25 23 21 20 20 19 17 15 12 11 10 9 9 10 11 12 13 13 13 12 11 11 12 12 14 16 16 17 16 15 13
3 3 2 8 10 5 3 5 10 14 23 24 24 24 26 28 28 29 27 26 25 23 22 20 18 17 15 14 12 10 10 11 11 12 14 14 13 13 13 13 14 16 18 18 18 18 18 18 17
3 3 2 5 14 7 11 9 12 24 28 28 28 27 30 31 31 28 26 26 27 26 24 21 20 19 17 16 14 12 11 11 11 12 13 13 13 12 12 12 13 14 16 17 19 21 22 22 21
2 4 7 4 17 5 6 8 8 18 34 32 31 30 33 33 33 32 29 30 30 28 25 23 22 20 19 17 15 14 12 12 12 12 13 11 12 11 12 13 13 15 18 19 22 21 21 20 22
7 5 5 6 9 8 8 14 3 21 32 33 35 35 35 38 40 36 34 33 33 30 27 24 23 21 20 18 16 14 13 12 12 13 12 11 11 9 11 12 14 15 18 20 22 24 22 23 23
3 4 6 6 6 9 14 15 14 23 24 27 35 38 41 43 39 34 34 35 33 31 28 26 24 24 21 19 16 14 13 13 11 12 10 12 9 10 11 13 13 16 19 19 20 22 23 25 27
12 9 7 7 3 9 8 18 15 14 26 36 39 39 44 42 41 37 37 37 35 31 30 27 26 25 22 19 16 14 13 11 11 11 11 11 9 11 11 12 13 17 18 20 22 22 25 24 25
12 8 4 6 2 4 5 8 9 14 23 31 38 45 45 47 45 42 42 41 35 32 29 28 27 24 22 18 16 15 13 11 10 10 10 8 8 10 10 11 15 16 17 19 20 22 25 26 27
8 4 5 7 3 5 5 11 6 10 12 12 33 36 45 44 44 44 44 43 38 31 27 26 27 26 23 20 18 16 13 11 10 10 9 7 8 8 9 13 16 15 16 18 20 22 22 24 30
7 4 3 3 3 2 3 3 5 7 8 13 19 38 40 45 44 47 47 45 38 30 26 27 28 26 25 21 19 16 13 12 10 10 9 8 8 10 13 15 15 16 18 19 23 22 23 28 29
7 4 3 4 3 5 7 7 20 8 15 8 7 29 39 41 43 43 42 42 38 30 26 27 31 29 25 23 21 17 15 12 12 11 10 9 12 14 16 16 16 17 20 21 23 27 28 27 30
3 7 2 3 1 10 11 9 23 7 9 9 8 20 34 39 41 43 41 40 37 33 29 27 30 30 28 26 22 19 14 12 12 11 11 13 15 17 18 18 17 18 20 25 27 25 26 29 32
11 11 7 8 6 10 6 8 9 15 29 18 20 20 28 35 37 42 41 39 38 34 31 30 31 31 29 27 23 19 14 13 12 12 14 17 18 19 19 19 18 22 26 28 28 30 31 31 32
7 11 12 3 3 2 6 8 9 5 4 8 17 21 30 33 35 39 39 38 38 36 34 33 31 30 28 27 23 19 16 13 14 14 17 18 18 19 22 19 21 25 28 30 31 31 32 33 32
8 7 3 3 6 7 8 7 8 11 19 11 8 22 33 33 33 35 36 37 37 35 34 33 31 29 26 23 21 19 16 17 16 16 16 17 19 21 19 20 24 28 31 31 31 33 33 33 35
5 9 5 5 6 7 9 7 10 17 11 14 18 28 34 35 34 34 35 35 35 34 35 34 31 28 25 24 22 20 19 19 18 17 16 19 19 19 21 24 28 30 32 32 32 33 36 35 36
16 12 23 8 5 7 15 17 4 9 10 14 21 32 33 33 34 32 33 34 35 36 36 35 31 28 25 23 23 22 22 21 20 17 19 19 21 20 24 28 27 30 32 34 33 34 34 34 35
Wind_Direction
21 23 357 69 67 74 107 21 130 25 40 80 85 89 89 66 59 133 84 74 99 99 55 32 21 40 52 51 59 57 60 66 63 57 51 44 36 28 30 31 31 35 35 34 33 30 26 20 47
22 29 44 60 79 83 283 91 97 109 115 107 99 96 66 65 96 96 74 128 13 17 30 50 34 48 61 62 67 65 66 65 62 56 53 51 46 40 35 27 22 22 22 21 25 30 32 30 12
33 28 16 88 61 117 147 152 123 105 164 359 113 93 82 78 109 107 87 130 27 17 44 52 58 66 79 86 84 79 75 71 65 57 50 46 43 43 41 37 30 25 20 19 16 14 19 22 359
33 19 350 81 124 338 138 163 144 160 220 59 110 85 89 92 125 131 114 86 284 21 50 82 81 90 93 88 85 80 71 66 61 55 50 49 46 40 40 37 33 29 23 18 17 15 6 352 341
18 22 46 104 75 102 98 140 160 161 167 107 116 129 96 113 129 135 138 106 349 66 75 95 94 95 100 95 87 78 73 68 63 59 57 51 46 37 34 33 30 28 22 18 12 12 355 336 329
6 7 61 244 205 131 124 153 211 184 122 116 110 112 141 140 133 136 140 115 113 109 96 91 102 105 105 100 93 87 81 73 65 59 50 47 44 28 25 27 20 22 23 19 9 8 347 321 305
71 75 208 66 191 129 161 163 220 158 119 64 136 117 148 159 135 151 134 141 131 117 113 100 92 110 114 110 100 90 79 67 58 53 42 33 31 28 9 15 16 18 14 15 10 353 339 309 286
17 101 334 180 180 210 156 148 103 119 107 123 145 160 171 167 142 157 147 148 159 134 127 120 102 103 123 120 111 93 59 47 38 37 31 21 24 6 6 342 3 1 4 8 3 354 345 333 290
344 58 290 314 162 168 155 131 131 110 131 92 113 159 165 163 150 168 167 164 163 167 159 162 151 137 141 142 130 108 34 23 23 25 23 20 18 22 359 340 300 294 325 337 339 347 349 354 341
123 114 242 356 322 155 153 149 147 135 129 103 121 137 156 163 161 178 189 185 178 177 178 185 184 180 178 167 159 63 4 11 12 13 11 13 9 7 12 10 357 357 342 268 285 289 304 335 356
194 177 253 31 28 160 161 167 178 153 209 188 175 162 158 160 171 188 188 205 197 195 194 192 191 186 195 206 230 340 360 3 6 4 5 8 6 3 4 4 2 354 347 345 342 322 301 304 316
164 197 130 159 258 148 172 160 174 180 220 211 202 178 168 174 179 178 189 204 213 204 202 196 199 205 211 226 266 341 350 353 357 359 355 357 356 355 358 1 0 356 352 347 343 337 313 286 280
198 211 179 147 222 258 185 171 180 181 143 180 178 181 180 183 190 198 208 211 212 209 202 204 209 218 228 250 286 318 333 343 346 342 343 348 347 350 354 355 353 353 355 350 350 347 336 315 285
316 169 165 169 210 238 209 203 182 194 174 162 174 183 184 189 194 195 201 205 215 214 211 213 219 224 236 251 272 295 314 327 330 331 336 340 341 348 352 353 353 354 358 356 352 350 345 340 322
178 142 195 201 197 221 138 270 226 207 202 197 194 196 193 198 202 205 206 206 214 221 222 221 225 230 240 257 273 290 304 315 322 327 332 335 341 351 356 357 354 353 354 353 350 347 342 338 331
167 127 203 246 180 214 152 259 242 217 198 205 213 210 204 207 213 211 207 209 214 222 225 227 228 236 247 260 273 287 296 304 315 319 325 331 336 345 351 352 355 354 350 349 345 344 340 336 334
268 225 219 307 187 146 162 256 258 236 201 209 212 213 211 213 216 214 211 210 216 220 224 227 231 240 248 256 268 279 290 296 303 311 320 328 336 336 339 344 347 348 346 345 343 344 342 338 332
206 225 235 207 216 178 201 247 226 190 192 209 216 218 216 218 224 221 214 216 220 224 226 226 231 236 243 253 265 274 279 286 298 310 322 334 334 331 336 340 344 343 340 340 338 338 340 339 338
225 211 235 264 237 167 217 227 227 207 203 216 221 221 221 224 230 227 222 221 223 224 223 226 231 238 244 254 263 269 275 283 296 308 320 329 328 339 341 347 343 337 333 333 332 336 336 336 338
246 257 266 296 198 178 236 241 242 206 217 219 219 220 223 225 226 224 223 225 226 227 225 223 226 235 245 252 260 266 272 283 298 310 318 315 327 339 342 335 336 329 328 331 331 334 329 330 331
233 219 237 236 317 262 277 281 241 250 233 231 228 230 227 225 223 220 219 224 227 228 227 227 229 236 244 249 256 262 269 281 296 301 297 304 312 316 328 330 318 322 323 324 324 324 326 320 322
236 193 237 244 135 241 155 283 275 284 269 222 227 217 224 222 224 223 217 220 225 230 231 227 226 234 242 250 255 260 266 281 291 296 296 291 293 308 309 307 308 310 310 310 313 312 313 308 311
234 155 164 206 209 333 207 304 254 253 274 266 224 220 218 223 222 221 222 225 227 228 231 226 224 233 241 246 254 261 271 280 293 298 292 287 296 302 301 307 306 310 310 306 304 307 303 300 304
154 101 45 32 84 273 173 187 274 222 238 254 243 214 224 221 219 220 224 224 225 226 227 226 225 230 235 240 249 259 267 281 292 294 286 287 291 296 302 310 310 308 305 309 307 300 300 300 300
160 102 288 285 181 239 183 206 249 262 248 217 197 221 220 219 214 212 217 216 217 222 226 226 224 225 229 235 244 254 262 276 283 286 288 288 290 298 307 311 312 312 311 306 309 310 304 301 300
198 166 172 203 210 259 196 230 248 222 246 230 214 204 208 210 210 209 215 217 220 224 229 228 225 224 227 235 240 247 259 267 278 279 280 287 294 299 311 310 315 311 310 309 309 307 304 301 300
194 212 209 286 168 292 227 265 299 277 233 213 182 180 189 198 204 209 212 218 221 224 227 226 227 230 233 235 237 242 254 261 273 270 272 282 291 295 302 307 309 306 305 307 308 301 302 302 300
160 167 100 195 215 227 246 233 228 225 235 216 209 192 189 198 205 209 213 216 220 224 225 225 229 232 234 234 237 246 249 260 270 274 272 278 284 290 298 304 303 301 302 304 305 301 300 300 302
191 220 219 179 169 195 256 249 207 221 219 201 204 200 194 200 206 208 214 217 218 219 220 223 226 229 229 230 236 241 243 257 271 275 278 284 288 295 298 297 297 299 303 305 304 301 300 301 302
230 225 207 204 251 245 249 254 254 194 188 181 201 206 209 211 211 212 216 215 214 216 219 221 224 227 229 230 232 234 243 251 269 273 278 285 287 292 295 298 301 304 303 304 305 304 301 301 303